Lapse_Rate
3.7 3.4 2.5 2.1 1.4 0.8 1.6 1.1 1.6 2.0 2.2 2.5 1.9 2.0 2.2 1.9 1.6 1.7 2.0 4.2 5.1 6.6 6.5 6.2 6.0 6.1 6.3 6.1 5.8 5.3 5.4 5.5 5.5 5.5 5.5 5.4 4.4 4.2 4.3 4.2 4.1 4.2 4.2
2.6 3.1 2.0 1.6 0.7 0.8 1.0 0.9 1.6 1.6 1.4 1.7 2.1 2.1 1.4 0.7 0.7 1.1 1.6 3.5 4.3 5.7 6.7 6.2 6.1 6.4 6.5 6.2 5.9 5.9 5.6 5.8 5.7 5.9 5.4 4.8 4.4 4.3 4.3 3.8 3.9 3.9 4.1
2.6 2.4 2.0 1.5 0.2 0.1 0.3 0.1 0.3 0.5 0.7 0.7 0.9 0.8 1.2 0.4 0.3 1.2 1.8 2.6 3.2 4.8 5.4 6.5 6.8 6.3 6.4 6.2 5.6 5.8 5.7 5.7 5.8 5.7 4.9 4.6 4.3 4.1 4.2 4.0 3.9 4.1 4.9
2.5 2.4 1.9 0.5 -0.6 -0.1 0.8 0.8 0.5 -0.0 0.2 0.6 0.5 -0.1 -0.2 -0.1 0.4 0.9 1.3 1.8 2.3 2.8 4.9 6.3 6.7 6.8 6.8 6.5 6.1 6.0 5.8 5.7 5.6 5.3 4.8 4.5 4.4 4.2 4.3 4.2 3.9 4.5 4.8
2.8 2.4 1.6 0.6 0.3 -0.1 0.5 1.4 0.9 1.5 0.5 0.3 0.1 -0.1 -0.4 -0.3 -0.0 0.2 0.9 1.5 2.0 2.5 4.0 5.9 6.4 6.3 6.6 6.5 6.4 6.1 6.0 5.6 5.3 4.9 4.8 4.6 4.3 4.2 4.1 3.9 4.2 4.5 4.5
3.4 2.1 1.1 0.5 0.7 0.4 0.6 1.0 1.7 1.3 0.8 0.4 0.3 -0.1 -0.0 -0.6 -0.7 -0.9 -0.2 -0.1 0.4 1.6 3.6 5.1 5.3 5.9 6.6 6.4 6.5 6.3 5.6 5.3 5.0 4.8 4.6 4.1 4.1 4.1 4.1 4.3 4.6 4.4 5.0
1.8 1.3 1.8 1.0 1.0 0.7 0.6 1.1 1.2 1.1 0.5 1.2 1.1 1.1 0.4 -0.2 -0.4 -1.2 -1.3 -1.0 -0.7 0.4 2.7 4.3 4.8 4.7 5.5 6.0 6.1 5.6 5.5 5.2 4.7 4.5 4.2 4.4 4.1 4.3 4.1 4.3 4.5 4.7 4.9
2.2 2.0 1.6 1.5 1.4 0.8 0.7 0.7 1.8 0.8 0.9 1.8 3.8 3.0 4.4 3.3 1.8 0.9 0.4 -0.0 -0.3 0.4 1.7 3.5 4.3 4.6 4.9 5.5 5.8 5.3 5.3 5.1 4.9 4.5 4.5 4.6 4.3 4.4 4.5 4.5 4.8 4.8 5.2
2.8 2.8 2.4 1.9 1.4 1.5 0.3 1.4 1.8 2.8 1.4 1.8 2.3 4.6 4.4 5.8 3.4 1.3 1.1 -0.0 -0.3 0.2 0.1 1.3 2.8 4.5 4.3 4.9 5.2 5.2 5.3 5.1 4.9 4.7 4.6 4.9 4.8 4.9 4.9 5.0 5.1 5.3 5.1
3.3 2.8 2.5 2.1 1.8 1.8 1.4 1.4 1.2 2.3 3.4 2.0 0.8 0.8 1.1 2.8 6.2 4.3 1.3 0.7 -0.3 -0.3 0.2 0.2 1.6 2.8 4.0 4.4 4.8 4.9 5.1 5.1 4.7 4.9 4.9 5.0 5.0 5.2 5.1 5.7 5.9 5.3 5.1
3.5 2.9 2.7 2.4 2.0 2.0 2.0 1.1 1.1 1.7 3.4 4.1 3.5 0.5 1.2 1.1 1.7 2.9 3.5 1.8 0.8 0.1 -0.1 0.1 0.4 1.5 3.2 3.9 4.1 5.1 4.8 4.6 4.9 5.1 5.2 5.4 5.4 5.3 5.5 5.7 5.8 5.5 5.4
3.5 3.3 2.6 2.5 2.5 2.1 1.9 1.3 1.6 1.7 2.6 3.4 3.5 1.8 2.2 3.3 2.9 2.8 1.7 1.0 2.5 0.9 -0.0 -0.5 -0.0 0.9 2.2 3.4 4.1 4.8 5.0 5.0 5.4 6.6 7.8 7.9 7.6 7.2 5.9 5.0 5.3 5.6 5.7
3.6 3.2 2.9 2.3 2.4 2.2 1.9 1.7 1.6 1.8 2.3 2.9 3.5 2.7 2.8 3.6 2.2 1.6 3.5 0.6 1.7 0.4 0.7 -0.2 -0.2 0.5 1.5 2.7 3.8 4.6 5.0 5.3 6.2 7.4 7.9 7.8 7.5 7.7 8.1 7.3 5.5 5.4 5.2
4.4 3.6 3.0 2.9 2.5 2.0 2.2 1.8 1.9 2.1 2.4 2.5 3.4 3.4 3.0 3.6 2.3 2.7 2.7 1.4 1.2 0.1 0.0 1.2 0.4 1.0 1.5 1.7 3.8 5.1 5.2 6.2 6.1 6.3 7.2 7.1 7.1 7.2 7.5 7.9 7.8 6.1 5.1
4.9 3.9 3.2 3.6 3.3 2.3 1.8 1.7 2.1 1.9 2.3 2.5 2.7 2.1 3.7 3.5 2.7 2.7 2.3 3.8 4.1 3.2 1.9 2.1 1.5 0.7 1.2 0.8 1.6 3.6 5.3 6.5 7.4 7.7 7.4 6.8 6.1 6.5 6.7 7.4 7.3 6.8 5.9
4.8 4.4 3.9 3.8 3.5 3.4 2.6 2.1 2.0 2.1 2.2 2.2 2.6 2.2 2.0 4.0 3.0 2.6 2.5 3.3 3.5 4.3 4.6 2.7 0.5 0.2 1.2 0.2 1.5 2.9 4.4 6.0 6.6 6.9 6.9 6.9 6.1 6.1 6.0 6.4 6.6 5.1 5.2
3.1 4.7 4.4 4.3 4.2 3.9 3.1 2.8 2.6 2.7 2.3 2.4 2.1 2.3 2.4 3.0 2.9 2.7 2.7 3.2 2.2 3.4 4.5 1.9 -0.7 -1.4 0.2 1.0 0.6 1.4 2.2 3.6 4.5 5.7 5.4 5.9 5.8 5.7 5.7 5.9 6.2 5.3 5.3
0.2 1.1 3.6 5.0 4.5 4.2 3.9 2.4 3.4 3.6 3.1 2.9 2.6 2.5 2.4 2.4 2.8 2.9 3.0 3.0 2.8 1.6 4.4 2.5 -1.9 -2.3 -0.0 -0.2 1.4 1.4 1.6 2.1 3.3 4.3 4.7 4.4 4.1 4.8 5.2 5.6 5.6 5.9 5.7
-0.7 0.0 0.7 2.0 4.5 4.8 4.1 3.3 3.1 3.8 3.5 2.9 3.3 2.6 3.0 2.9 2.6 3.7 2.8 3.2 2.7 2.6 1.7 1.7 -0.6 -3.1 -1.4 -2.2 -0.7 0.7 1.3 1.9 2.1 2.8 3.8 3.7 3.7 3.9 4.2 4.7 5.1 5.6 5.3
-0.7 -0.7 -0.5 -0.3 0.7 3.5 4.6 4.5 4.1 3.6 3.2 3.5 3.4 3.5 3.1 3.2 3.1 3.0 3.0 3.0 3.2 2.6 1.0 1.8 -1.4 -2.1 -1.8 -3.2 -0.6 -0.7 -1.3 -0.8 1.5 1.3 2.9 3.3 3.4 3.5 3.7 3.9 4.3 4.8 4.9
-1.1 -1.3 -1.0 -0.8 -0.6 0.8 2.6 4.2 4.3 3.8 3.8 3.2 3.3 3.4 3.3 3.3 2.0 3.7 3.4 2.7 3.4 2.7 2.0 1.6 0.3 -2.8 -2.6 -3.5 -1.9 -1.6 -0.4 -0.6 0.4 1.5 2.1 2.1 2.5 2.9 3.4 4.2 4.0 4.1 4.4
-0.5 -2.2 -1.9 -1.4 -2.3 -0.7 0.7 0.6 0.0 4.3 4.0 3.8 3.7 3.9 4.0 2.1 2.0 2.0 2.6 2.4 2.8 2.8 2.7 1.6 1.8 0.8 -0.2 -0.6 -1.3 -1.1 -1.2 -1.1 0.4 -1.5 1.3 1.4 1.9 1.7 2.5 3.4 3.3 3.4 3.8
0.1 -0.8 -1.6 -2.2 -2.2 -1.1 0.5 0.6 0.4 0.5 3.4 4.1 4.5 3.9 2.9 3.3 1.8 3.1 2.3 1.5 2.3 2.1 3.1 2.0 2.3 1.1 2.0 -0.1 -1.4 -0.8 -1.1 -0.8 -0.2 -2.4 0.1 1.9 0.7 1.0 1.2 2.4 2.6 3.0 3.5
1.0 1.0 -0.1 -0.8 -1.1 -0.9 0.1 0.5 0.9 0.6 1.5 2.0 4.0 4.8 4.3 3.8 3.0 1.6 2.1 2.8 3.0 2.9 2.4 3.0 2.5 3.5 2.1 1.5 0.1 0.1 -0.9 -0.9 -2.0 -1.3 0.3 2.2 -0.9 1.3 0.9 1.2 2.9 3.9 4.0
1.2 1.4 1.6 0.8 0.7 0.8 1.5 1.7 1.6 -0.1 0.0 1.0 2.0 2.7 4.3 4.5 3.6 2.3 2.8 2.7 2.3 2.7 1.8 0.9 2.0 2.2 2.0 1.2 -0.2 -0.8 0.3 0.4 1.3 -2.5 -0.3 2.2 -0.8 1.6 -0.4 0.4 2.1 3.9 4.4
2.0 2.0 1.8 2.2 2.1 2.6 2.5 2.4 3.4 2.7 1.5 0.6 0.0 0.6 2.1 3.1 3.9 3.1 3.1 3.3 2.4 2.7 2.0 0.9 0.8 0.7 1.5 -0.1 -0.7 0.6 0.6 0.7 2.2 0.4 -1.4 1.7 -0.9 -0.2 0.2 -0.5 1.0 3.6 4.4
Wind_Speed
11 14 12 12 11 11 11 11 12 12 12 11 10 10 10 9 9 7 6 10 8 13 13 13 13 17 17 18 17 16 16 18 21 24 24 23 25 23 20 19 18 16 16
14 14 12 12 11 11 11 11 12 11 10 11 11 9 9 8 8 7 6 5 7 8 12 14 14 17 18 18 18 18 18 21 21 22 23 22 22 21 18 18 16 17 17
17 15 13 12 13 11 13 13 12 11 9 9 10 9 8 8 8 7 5 4 3 5 6 13 16 17 18 19 21 21 21 21 22 21 22 21 21 19 17 17 16 16 14
20 16 12 11 16 13 12 12 9 6 5 5 5 5 7 6 6 6 5 4 3 2 2 10 14 17 20 21 23 23 22 21 20 20 20 19 19 16 15 15 15 14 14
20 17 11 14 18 14 11 11 7 7 7 6 6 5 6 5 5 4 5 4 4 2 3 11 17 18 20 22 21 22 21 21 20 19 18 16 16 15 15 15 15 13 13
18 16 13 16 17 10 7 8 10 8 6 7 7 6 4 5 4 5 4 3 3 4 5 12 15 17 20 22 21 21 21 18 17 17 16 16 16 15 15 15 13 13 12
17 17 13 13 15 9 10 9 9 12 5 8 6 5 4 4 4 4 4 3 3 4 7 13 11 14 17 19 21 22 20 19 18 19 18 16 16 14 15 13 12 12 12
21 18 16 10 13 8 9 11 11 6 3 8 4 4 2 1 2 3 3 3 3 2 2 14 14 16 17 16 20 22 20 20 19 18 17 15 15 14 13 13 11 11 10
21 19 19 16 13 11 10 11 11 13 7 8 8 3 3 4 2 0 2 2 3 2 1 6 13 18 18 17 21 20 20 20 19 18 16 15 14 13 13 12 11 11 11
20 22 22 20 16 12 12 12 9 8 9 11 4 3 0 4 4 2 1 0 2 1 1 2 7 16 20 17 19 20 23 21 19 17 16 14 13 13 13 12 12 10 11
19 20 21 20 13 11 11 14 13 10 8 9 7 4 2 1 2 3 3 3 1 2 1 2 2 10 17 21 18 19 23 22 20 18 17 16 14 13 12 11 11 11 10
9 15 20 18 18 13 14 12 13 14 11 9 8 6 5 5 5 3 2 2 3 2 2 3 4 8 16 16 19 21 21 22 21 21 19 19 18 16 15 12 11 11 10
7 11 14 14 12 15 16 16 13 14 14 11 12 8 6 6 4 3 4 3 2 2 3 3 7 8 12 14 17 20 20 18 18 19 21 21 21 20 17 14 13 12 11
9 11 12 12 15 19 16 16 11 11 13 11 13 11 8 7 5 4 5 6 2 2 3 3 7 13 14 14 20 26 19 19 17 15 16 22 23 22 22 18 14 14 13
8 12 14 14 14 13 15 15 12 13 13 13 13 11 11 8 7 6 5 9 6 7 9 7 5 16 16 16 18 23 24 27 23 17 15 9 18 22 21 21 16 15 15
7 11 14 14 13 13 14 15 13 12 14 11 11 13 12 10 9 7 6 8 6 6 8 9 10 6 20 16 19 20 21 34 32 28 24 23 22 21 21 21 20 17 17
9 7 11 13 14 15 15 14 14 15 16 15 14 14 17 15 10 9 8 8 7 5 8 4 4 7 13 13 17 19 17 18 20 29 29 32 32 30 25 24 22 20 19
8 8 9 12 16 16 15 16 16 14 16 17 17 17 17 12 15 12 10 13 10 9 9 8 7 8 9 17 18 17 17 16 17 25 31 32 32 32 32 28 24 22 21
9 10 8 10 10 13 15 16 18 18 18 20 19 18 18 17 16 14 13 12 11 9 9 5 5 3 7 4 8 12 15 17 17 20 29 30 30 30 29 28 28 25 24
9 9 9 9 9 11 16 17 16 17 17 18 18 19 19 19 19 18 15 17 14 12 10 10 4 4 4 5 7 10 7 6 9 16 25 26 28 29 29 30 30 30 27
9 8 9 8 9 9 7 11 16 18 19 18 18 17 18 21 24 23 15 18 17 14 11 11 7 4 5 4 12 8 11 8 9 13 9 16 22 23 25 29 28 29 28
9 7 8 9 8 8 16 14 13 14 19 19 17 17 17 18 22 28 30 29 25 20 19 14 13 13 14 11 9 11 11 6 6 16 12 10 21 10 21 25 28 29 29
11 9 8 8 8 9 17 19 15 7 11 14 16 16 15 14 20 20 27 29 31 34 32 20 20 18 18 15 13 14 15 14 11 6 14 11 9 11 20 23 29 30 30
9 9 8 8 9 9 18 19 18 8 8 10 11 17 18 19 19 19 19 19 21 21 22 18 21 21 20 17 19 20 19 12 3 1 14 9 7 10 13 19 29 31 30
9 8 9 9 9 10 16 19 16 7 8 11 8 8 10 15 20 23 20 18 17 20 21 28 26 21 18 22 22 10 10 11 7 5 12 7 5 8 7 8 24 34 33
9 9 10 8 11 12 17 15 14 7 9 7 7 8 13 14 15 19 18 17 15 18 16 15 15 16 18 19 34 20 15 14 11 6 9 10 6 6 3 4 15 25 28
Wind_Direction
150 141 139 134 130 132 145 136 129 124 116 114 103 104 97 88 79 79 79 90 130 150 151 151 151 147 143 139 139 141 138 133 126 119 110 108 100 95 92 86 81 78 76
147 146 140 134 128 143 145 137 132 126 114 115 105 103 96 88 77 72 70 75 92 144 165 160 164 154 150 148 146 141 136 136 132 121 114 107 101 99 98 92 89 87 87
150 149 144 143 137 144 138 126 113 111 107 99 99 96 92 77 74 65 58 53 48 122 172 174 168 165 158 149 142 141 135 134 127 121 114 111 108 105 104 97 95 92 87
154 150 149 144 139 140 145 137 131 112 108 103 102 80 78 69 66 57 49 37 18 9 220 185 177 164 158 152 147 139 135 129 121 118 116 111 107 107 105 101 98 96 84
156 152 159 143 143 144 146 147 138 138 134 123 108 88 68 63 53 45 34 17 349 313 265 186 173 170 168 158 150 139 129 124 122 119 117 115 113 111 110 108 107 98 92
153 148 147 144 145 144 146 149 147 139 139 129 111 87 66 59 49 46 10 353 344 282 226 173 170 177 174 160 150 142 137 135 132 129 129 125 120 117 116 111 109 106 101
151 144 145 155 157 160 161 154 136 143 136 143 116 97 72 72 57 37 14 1 343 291 226 172 168 163 164 154 146 142 146 145 142 139 134 135 128 125 121 119 117 112 104
160 158 158 163 167 158 156 162 161 150 125 182 148 127 144 148 83 36 25 1 344 314 252 165 158 148 149 152 151 146 152 147 146 142 142 142 137 134 131 129 124 120 117
167 164 168 166 168 166 170 175 177 179 158 194 206 151 152 196 143 357 26 27 349 347 18 142 153 154 151 147 148 153 156 152 153 149 152 150 146 142 140 143 135 133 127
173 172 173 173 173 176 178 183 180 184 178 182 196 230 8 144 166 173 230 329 353 318 35 45 146 150 154 152 159 162 159 157 154 158 156 155 155 154 151 154 151 145 138
181 178 178 177 178 181 186 183 181 189 191 192 189 158 167 103 116 144 164 193 254 246 243 181 186 170 156 160 159 169 163 161 164 167 163 162 163 163 163 165 161 159 156
187 188 179 184 186 185 187 189 189 191 195 200 197 189 177 170 183 162 144 147 178 194 236 221 224 194 164 168 169 172 175 175 175 177 179 178 174 173 171 171 171 168 165
197 195 190 184 190 192 190 188 193 196 199 203 199 202 208 204 155 146 145 140 145 186 202 232 233 211 188 176 173 174 176 178 184 191 193 191 184 180 177 176 179 179 175
189 193 196 201 197 190 192 192 197 201 202 207 211 206 205 209 189 170 156 157 130 202 217 201 205 215 201 194 182 181 178 181 184 195 213 198 187 180 175 179 187 187 182
195 192 200 198 203 202 193 191 200 205 202 207 211 208 211 208 203 200 174 187 173 186 217 215 190 206 211 207 200 189 183 190 194 200 204 206 188 178 177 172 187 197 192
197 196 197 201 196 203 203 198 202 206 209 207 211 207 209 211 206 198 196 197 218 198 210 196 208 187 199 207 210 205 203 189 196 205 202 183 178 181 177 172 176 194 195
350 233 211 202 206 206 198 200 210 207 205 211 209 208 213 210 209 200 200 205 211 201 221 179 197 180 195 203 211 213 212 210 204 199 191 185 181 181 180 174 174 195 202
343 340 308 216 209 203 203 202 207 209 211 214 210 211 214 210 210 204 200 206 210 206 208 205 191 194 199 207 207 209 210 209 206 202 192 187 183 183 182 178 182 194 203
344 338 334 332 227 214 211 205 205 214 212 213 212 208 212 210 210 212 206 210 209 211 214 198 181 188 204 188 203 210 209 210 210 208 197 190 190 191 185 180 183 192 198
342 342 337 331 322 294 223 212 218 215 217 218 217 214 212 213 211 209 208 210 209 208 205 216 178 170 189 196 205 200 205 211 206 202 205 201 196 195 189 188 191 191 195
331 335 334 333 329 306 321 258 219 214 214 215 216 221 215 216 214 214 209 206 208 209 206 209 200 168 174 171 198 195 212 200 212 200 205 199 196 196 198 197 196 193 192
323 332 338 327 335 323 313 321 359 253 216 219 215 217 224 217 220 217 215 214 204 203 209 208 210 217 206 205 186 195 195 184 207 204 198 206 196 197 197 196 195 193 194
323 331 329 325 321 314 317 318 322 318 290 230 226 226 225 226 219 221 222 221 215 209 208 202 212 211 212 200 189 192 198 205 215 175 191 204 203 202 193 195 191 194 196
320 319 321 319 312 313 317 317 313 295 288 293 258 236 228 225 221 217 220 222 222 224 220 217 215 217 216 202 199 199 200 191 61 121 187 206 181 206 188 196 195 196 197
320 319 313 313 307 299 306 313 312 309 283 274 268 275 251 236 230 219 221 223 220 223 221 222 238 229 219 203 190 165 187 178 200 173 197 187 183 191 183 191 197 196 199
307 321 312 306 306 307 306 310 307 293 285 278 271 250 253 260 245 215 218 224 224 227 218 214 224 224 207 193 190 190 186 195 202 189 190 187 161 154 183 210 197 197 199